Regional Weather Roundup
Issued by NWS

Home | Current Version | Previous Version | Graphics & Text | Print | Product List | Glossary Off
Versions: 1 2 3 4 5 6 7 8 9 10 11 12 13 14 15 16 17 18 19 20 21 22 23 24 25 26 27 28 29 30 31 32 33 34 35 36 37 38 39 40 41 42 43 44 45 46 47 48 49 50

000
ASUS43 KIND 222309
RWRIN

WEATHER ROUNDUP FOR INDIANA
NATIONAL WEATHER SERVICE INDIANAPOLIS IN
700 PM EDT THU JUN 22 2017

NOTE: "FAIR" INDICATES FEW OR NO CLOUDS BELOW 12,000 FEET WITH NO
SIGNIFICANT WEATHER AND/OR OBSTRUCTIONS TO VISIBILITY.

* - STATION DOES NOT REPORT WEATHER SUCH AS PRECIPITATION OR FOG.

+ - STATION NOT QUALITY CONTROLLED BY THE NATIONAL WEATHER SERVICE.
    USE DATA WITH CAUTION...ESPECIALLY DEWPOINT AND RELATIVE
    HUMIDITY OBSERVATIONS.

INZ001>003-010>013-019-020-230000-
NORTHWEST INDIANA

CITY           SKY/WX    TMP DP  RH WIND       PRES   REMARKS
GARY /AIRPORT/ PTSUNNY   84  70  61 S12G23    29.75F
KNOX *+        PTSUNNY   79  61  53 S10G18    29.78F
LA PORTE +     CLOUDY    82  70  67 S15G23    29.79S
MICHIGAN CITY+ LGT RAIN  77  70  78 S9G23     29.77F
MONTICELLO +   CLOUDY    81  69  67 S17G23    29.80F
RENSSELAER +   CLOUDY    81  68  65 S20G28    29.80F
VALPARAISO     PTSUNNY   83  71  67 S13G21    29.78F

$$

LMZ046-743>745-230000-
SOUTHERN LAKE MICHIGAN

STATION/POSITION TIME  TEMP    WIND        PRES    WAVE
                       AIR SEA DIR/SP/G            HT
                 (UTC) (F)     (DEG/KT/KT) (MB)    (FT)
BURNS HARBOR     2240   81     200/ 17/ 27 1007.8F
MICHIGAN CITY    2240   81     190/ 20/ 22   N/A
5NW MICH CITY    2300   77 68  210/ 16/ 21   N/A     2

$$

INZ004-005-014>016-021>024-230000-
NORTH CENTRAL INDIANA

CITY           SKY/WX    TMP DP  RH WIND       PRES   REMARKS
ELKHART        RAIN      82  70  65 S17G29    29.78F
GOSHEN         PTSUNNY   83  66  56 SW18G31   29.79F
LOGANSPORT +   CLOUDY    77  70  78 S17       29.83F
PERU/GRISSOM   CLOUDY    77  71  82 SW13      29.80S
ROCHESTER +    MOSUNNY   82  72  69 S10       29.81F
SOUTH BEND     LGT RAIN  80  70  71 S15G24    29.78F
WARSAW +       PTSUNNY   81  68  65 SW7       29.80F

$$

INZ006>009-017-018-025>027-230000-
NORTHEAST INDIANA

CITY           SKY/WX    TMP DP  RH WIND       PRES   REMARKS
AUBURN +       SUNNY     84  64  51 S12G20    29.81F
FORT WAYNE     PTSUNNY   83  67  58 S18       29.83F
KENDALLVILLE + SUNNY     84  68  57 SW20G25   29.80F

$$

INZ028-029-035-036-043>045-051>053-230000-
WEST CENTRAL INDIANA

CITY           SKY/WX    TMP DP  RH WIND       PRES   REMARKS
CRAWFORDSVL +  CLOUDY    74  69  82 S18G25    29.85F
GREENCASTLE +  CLOUDY    72  68  88 S7        29.87F
LAFAYETTE      PTSUNNY   80  70  71 S8G21     29.81F
TERRE HAUTE    CLOUDY    74  71  91 S10       29.84F

$$

INZ030>032-037>040-046>048-054>057-064-065-230000-
CENTRAL INDIANA

CITY           SKY/WX    TMP DP  RH WIND       PRES   REMARKS
CP ATTERBURY + RAIN      72  70  94 S7        29.89F
COLUMBUS       CLOUDY    73  68  83 S9        29.89F
FRANKFORT +    PTSUNNY   80  71  74 S12G21    29.86F
GREENWOOD *+   CLOUDY    76  67  74 S14       29.89F
INDIANAPOLIS   CLOUDY    75  69  81 S15       29.87F
-EAGLE CREEK   CLOUDY    77  68  73 S9        29.86F
KOKOMO +       PTSUNNY   81  70  69 S23       29.84F
MARION +       CLOUDY    79  68  69 S24G30    29.86F
MT COMFORT *+  CLOUDY    77  68  73 S14G22    29.89F
SHELBYVILLE    CLOUDY    78  68  71 S12       29.88F
ZIONSVILLE +   CLOUDY    77  68  73 S14       29.87F

$$

INZ033-034-041-042-049-050-058-059-230000-
EAST CENTRAL INDIANA

CITY           SKY/WX    TMP DP  RH WIND       PRES   REMARKS
MUNCIE         CLOUDY    79  68  69 S16       29.87F
RICHMOND +     CLOUDY    73  68  83 S17       29.93S

$$

INZ060-061-067>069-081>083-085>088-230000-
SOUTHWEST INDIANA

CITY           SKY/WX    TMP DP  RH WIND       PRES   REMARKS
EVANSVILLE     CLOUDY    74  71  91 SE7       29.84F
HUNTINGBURG *+ LGT RAIN  73  71  93 SE12      29.86F
WASHINGTON +   CLOUDY    73  70  90 SE13G18   29.84F

$$

INZ062-063-066-070>080-084-089>092-230000-
SOUTH CENTRAL AND SOUTHEAST INDIANA

CITY           SKY/WX    TMP DP  RH WIND       PRES   REMARKS
BEDFORD +      CLOUDY    72  68  88 S7        29.87F
BLOOMINGTON    CLOUDY    73  68  84 S10G16    29.87F
MADISON *+     CLOUDY    72  70  94 S7        29.93F
NORTH VERNON + RAIN      70  68  94 SE5       29.91F
SEYMOUR +      RAIN      73  72  94 SE6       29.89F

$$





USA.gov is the U.S. government's official web portal to all federal, state and local government web resources and services.